Tracking 29892 objects as of 21-Nov-2024
HD Live streaming from Space Station
objects crossing your sky now

SL-6 R/B(2)

Track SL-6 R/B(2) now!


NORAD ID: 16854
Int'l Code: 1986-050D
Perigee: 3,058.7 km
Apogee: 36,928.1 km
Inclination: 67.1 °
Period: 710.0 minutes
Semi major axis: 26364 km
RCS: 5.326 m2 (large)
Launch date: July 5, 1986
Source: Commonwealth of Independent States (former USSR) (CIS)
Launch site: PLESETSK MISSILE AND SPACE COMPLEX (PKMTR)

Note: This is a ROCKET BODY
Your satellite tracking list
Your tracking list is empty




NASA's NSSDC Master Catalog

Two Line Element Set (TLE):
1 16854U 86050D   24325.90426315 -.00000456  00000-0  00000-0 0  9995
2 16854  67.0562 331.6360 6423334  11.8260   7.0155  2.02804034284327
Source of the keplerian elements: AFSPC